Regional Weather Roundup
Issued by NWS

Home | Current Version | Previous Version | Text Only | Print | Product List | Glossary On
Versions: 1 2 3 4 5 6 7 8 9 10 11 12 13 14 15 16 17 18 19 20 21 22 23 24 25 26 27 28 29 30 31 32 33 34 35 36 37 38 39 40 41 42 43 44 45 46 47 48 49 50
000
ASUS42 KKEY 030710
RWRKEY

FLORIDA REGIONAL WEATHER ROUNDUP FOR THE FLORIDA KEYS
NATIONAL WEATHER SERVICE KEY WEST FLORIDA
300 AM EDT THU SEP 03 2015

...SOUTH FLORIDA AND THE KEYS...

CITY           SKY/WX    TMP DP  RH WIND       PRES   REMARKS
FORT MYERS     CLOUDY    80  75  84 CALM      29.96F
SW REGIONAL AP CLOUDY    80  77  90 S5        29.97F
NAPLES         MOCLDY    80  76  87 S3        29.97F
MIAMI          PTCLDY    81  78  91 NW3       29.98F
WEST KENDALL   MOCLDY    78  77  96 CALM      29.98F
HOMESTEAD      CLEAR     79  76  89 NW1       29.97F
MARATHON       CLEAR     84  77  79 E3        29.98F HX  94
BOCA CHICA NAS PTCLDY    83  77  82 E6        29.97F HX  92
KEY WEST INTL  MOCLDY    85  77  77 SE7       29.98F HX  95

...INTERNATIONAL WEATHER...

CITY           SKY/WX    TMP DP  RH WIND       PRES   REMARKS
NASSAU BAHAMAS PTCLDY    81  75  83 SE3       29.98F
CANCUN MEXICO  PTCLDY    79  77  94 E2        29.97S
COZUMEL MEXICO PTCLDY    72  72 100 CALM      29.99S

ADJACENT COASTAL WATERS...

STATION/POSITION TIME  SKY/WX   TEMP    WIND        PRES    WAVE
                                AIR SEA DIR/SP/G            HT/PER
                 (UTC)          (F)     (DEG/KT/KT) (MB)    (FT/S)
PULASKI SHOAL LI 0600                                 N/A
SAND KEY         0650            85     120/  6     1015.1F
SOMBRERO KEY     NOT AVBL
LONG KEY         0600            85 88  120/  5/  6 1016.3F
MOLASSES REEF    0700            84 87  130/  6/  7 1015.0F
FOWEY ROCKS      NOT AVBL

$$



USA.gov is the U.S. government's official web portal to all federal, state and local government web resources and services.